Regional Weather Roundup
Issued by NWS Charleston, SC

Current Version | Previous Version | Graphics & Text | Print | Product List | Glossary On
Versions: 1 2 3 4 5 6 7 8 9 10 11 12 13 14 15 16 17 18 19 20 21 22 23 24 25 26 27 28 29 30 31 32 33 34 35 36 37 38 39 40 41 42 43 44 45 46 47 48 49 50
000
ASUS42 KCHS 190127
RWRCHS

REGIONAL WEATHER ROUNDUP
NATIONAL WEATHER SERVICE CHARLESTON SC
800 PM EST WED JAN 18 2017

NOTE: "FAIR" INDICATES FEW OR NO CLOUDS BELOW 12,000 FEET WITH NO
SIGNIFICANT WEATHER AND/OR OBSTRUCTIONS TO VISIBILITY.

NOT ALL STATIONS ARE QUALITY CONTROLLED. USE DATA WITH CAUTION...
ESPECIALLY DEWPOINT OBSERVATIONS.

SCZ027-030-031-034>040-042>050-190200-
...SOUTHEAST SOUTH CAROLINA...

CITY           SKY/WX    TMP DP  RH WIND       PRES   REMARKS
N CHARLESTON   PTCLDY    69  58  67 W5        30.01R
WATERFRONT PRK   N/A     70  61  73 VRB2      30.00R
MOUNT PLEASANT FAIR      70  61  73 CALM      30.02R
JOHNS ISLAND   FAIR      68  61  77 W6        30.02S
PINOPOLIS        N/A     66  61  82 SW6       29.92R
MONCKS CORNER  FAIR      61  57  88 CALM      30.02R
SUMMERVILLE    FAIR      63  61  94 W5        30.03R
BEAUFORT MCAS  CLEAR     70  59  68 W6        30.03R
BEAUFORT ARPT  NOT AVBL
HILTON HEAD IS CLEAR     68  59  73 SW7       30.04S
WALTERBORO     CLEAR     66  59  77 W7        30.03F
ALLENDALE      FAIR      68  61  77 CALM      30.03R

...SOUTHERN MIDLANDS AND PEE DEE...

CITY           SKY/WX    TMP DP  RH WIND       PRES   REMARKS
GEORGETOWN     FAIR      59  57  94 CALM      30.02R
KINGSTREE      FAIR      55  50  82 CALM      30.01S
ORANGEBURG     PTCLDY    61  51  70 CALM      30.02R
BARNWELL       FAIR      68  63  83 W6        30.04R
AIKEN          FAIR      61  46  59 W7        30.07R
MANNING        FAIR      55  45  67 CALM      30.01S
COLUMBIA       PTCLDY    67  47  48 N5        30.02R
SUMTER         CLEAR     60  47  62 NW5       29.99R
FLORENCE       CLEAR     60  44  55 NE5       30.02R
MYRTLE BEACH   CLEAR     61  52  72 N6        30.03R
N MYRTLE BEACH CLEAR     56  52  86 CALM      30.01R

$$

GAZ063-065-086>088-099>101-113>116-118-119-134>141-150-190200-
...SOUTHEAST GEORGIA...

CITY           SKY/WX    TMP DP  RH WIND       PRES   REMARKS
SAVANNAH ARPT  CLEAR     68  58  70 SW8       30.06R
HUNTER AAF     CLEAR     68  61  76 SW10      30.03S
FORT STEWART   CLEAR     65  58  79 SW5       30.05R
STATESBORO     CLEAR     69  62  78 W6        30.06R
SYLVANIA       CLEAR    N/A N/A N/A W3        30.06R
CLAXTON        FAIR     N/A N/A N/A CALM      30.08R

...CSRA...CENTRAL AND FAR SOUTHEAST GEORGIA...

CITY           SKY/WX    TMP DP  RH WIND       PRES   REMARKS
THOMSON        CLEAR     66  55  69 W3        30.11R
AUGUSTA-BUSH   CLEAR     67  59  75 W6        30.03R
AUGUSTA-DANIEL CLEAR     70  52  52 W5        30.05R
SWAINSBORO     FAIR      68  59  73 MISG      30.08S
VIDALIA        CLEAR     64  61  88 CALM      30.09S
EASTMAN        FAIR      63  61  92 CALM      30.12R
HAZLEHURST     FAIR      65  62  88 SW3       30.08S
ALMA           CLEAR     65  61  87 SW3       30.09S
WAYCROSS       CLEAR     67  66  95 W6        30.10S
JESUP          FAIR      64  59  82 CALM      30.09S
BAXLEY         FAIR      64  64 100 CALM      30.09R
BRUNSWICK      CLEAR     66  61  82 W5        30.10R
SAINT SIMONS   CLEAR     67  58  72 W6        30.08S

$$

SCZ027-028-034-036>038-045-046-048>050-GAZ119-141-190200-
...LAKE AND SUPPLEMENTAL COASTAL OBSERVATIONS...

STATION/POSITION TIME  TEMP    WIND        PRES    WAVE   SWELL
                       AIR SEA DIR/SP/G            HT/PER HT/PER/DIR
                 (UTC) (F)     (DEG/KT/KT) (MB)    (FT/S) (FT/S/D)
WINYAH BAY       0045   63     330/  2     1016.0R
LAKE MURRAY      0020   68     340/  2/  7 1016.3R
ACE BASIN NERRS  0045   68     270/  1     1017.0R
FORT PULASKI     0100   69 57  260/  7/ 10 1017.7
SAPELO ISLAND    0100   64     240/  4     1019.0

$$

ANZ835-935-AMZ111-154-330-350-352-354-370-450-454-472-190200-
...C-MAN AND BUOY OBSERVATIONS...

STATION/POSITION TIME  TEMP    WIND        PRES    WAVE   SWELL
                       AIR SEA DIR/SP/G            HT/PER HT/PER/DIR
                 (UTC) (F)     (DEG/KT/KT) (MB)    (FT/S) (FT/S/D)
BUOY 41004       0050   70 72  260/ 17/ 19 1015.7R   5/ 6   2/210/ 9
BUOY 41008       0050   62 60  250/  6/  6 1018.4R   1/10   2/ 70/10
FOLLY BEACH CMAN 0100   64     240/  4/  5 1017.0R
CAPERS NEARSHORE 0108   57 55  250/  6/  8 1016.2R
FRIPP NEARSHORE  0108   62 58  240/  8/ 12 1016.7S


STATION/POSITION TIME  TEMP    WIND        PRES    WAVE   SWELL
                       AIR SEA DIR/SP/G            HT/PER HT/PER/DIR
                 (UTC) (F)     (DEG/KT/KT) (MB)    (FT/S) (FT/S/D)
5E ST. MARYS GA  0100      63                N/A     1/10
FRYING PAN BUOY  0100   68 72  360/ 14/ 17 1016.0
BUOY 41025       0050   57 72   20/ 25/ 31 1015.0R   5/ 6
CAPE LOOKOUT NC  0100   52      10/ 10/ 13 1016.9R
BUOY 41002       0050   70 72  290/ 21/ 27 1013.5R   9/ 8
BUOY 41010       NOT AVBL
ST AUGUSTINE FL  0100   71 63  250/  3/  3 1020.4S


$$




USA.gov is the U.S. government's official web portal to all federal, state and local government web resources and services.